This is the latest recevied weather packets stored in our database for station/object IZ3MEZ-13. If no packets are shown the sender has not sent any weather packets the latest 10 day(s).
| Time | Temp. | Humidity | Pressure | Rain* | Wind** | Luminosity | Snow |
|---|---|---|---|---|---|---|---|
| 1777745421 | 21.11° C | 40% | 1021.6 hPa | 0 mm | - | 4 W/m² | - |
| 1777744817 | 21.67° C | 39% | 1021.5 hPa | 0 mm | - | 10 W/m² | - |
| 1777743019 | 22.78° C | 37% | 1021.6 hPa | 0 mm | - | 20 W/m² | - |
| 1777742420 | 22.78° C | 36% | 1021.6 hPa | 0 mm | - | 22 W/m² | - |
| 1777741817 | 23.33° C | 36% | 1021.6 hPa | 0 mm | - | 45 W/m² | - |
| 1777740021 | 24.44° C | 35% | 1021.8 hPa | 0 mm | - | 110 W/m² | - |
| 1777739429 | 24.44° C | 34% | 1022 hPa | 0 mm | - | 147 W/m² | - |
| 1777738216 | 25.56° C | 33% | 1022 hPa | 0 mm | - | 188 W/m² | - |
| 1777737623 | 27.22° C | 31% | 1022.2 hPa | 0 mm | - | 198 W/m² | - |
| 1777737018 | 28.89° C | 30% | 1022.2 hPa | 0 mm | - | 225 W/m² | - |
| 1777736418 | 30° C | 30% | 1022.2 hPa | 0 mm | - | 269 W/m² | - |
| 1777735819 | 29.44° C | 30% | 1022.3 hPa | 0 mm | - | 293 W/m² | - |
| 1777735226 | 29.44° C | 29% | 1022.5 hPa | 0 mm | - | 321 W/m² | - |
| 1777734619 | 29.44° C | 29% | 1022.5 hPa | 0 mm | - | 314 W/m² | - |
| 1777734017 | 29.44° C | 29% | 1022.6 hPa | 0 mm | - | 375 W/m² | - |
| 1777733418 | 29.44° C | 30% | 1022.6 hPa | 0 mm | - | 394 W/m² | - |
| 1777732821 | 29.44° C | 29% | 1022.8 hPa | 0 mm | - | 436 W/m² | - |
| 1777732226 | 30.56° C | 30% | 1023 hPa | 0 mm | - | 474 W/m² | - |
| 1777731617 | 30° C | 29% | 1023.2 hPa | 0 mm | - | 493 W/m² | - |
| 1777731017 | 30° C | 30% | 1023.2 hPa | 0 mm | - | 528 W/m² | - |
| 1777730424 | 30.56° C | 30% | 1023.3 hPa | 0 mm | - | 541 W/m² | - |
| 1777729819 | 30.56° C | 31% | 1023.7 hPa | 0 mm | - | 539 W/m² | - |
| 1777729222 | 29.44° C | 31% | 1023.7 hPa | 0 mm | - | 590 W/m² | - |
| 1777728616 | 28.89° C | 32% | 1023.8 hPa | 0 mm | - | 604 W/m² | - |
| 1777728019 | 29.44° C | 31% | 1023.9 hPa | 0 mm | - | 660 W/m² | - |
* Rain latest hour (hover to see other rain measurements)
** Current wind speed in m/s (hover to see current wind gust speed)